Location: Santa Fe
(35.6870°N, 105.9370°W)
Time: 03:34:25
(UTC-06:00)

Amateur Radio Satellites - All Passes

Search period start: 17 September 2014 03:04
Search period end: 18 September 2014 03:04
Location: Santa Fe, 35.6870°N, 105.9370°W

Satellite Date Start Highest point End Downlink Frequencies (MHz)
Time Altitude Azimuth
PANSAT 17 Sep 03:07:10 03:09:53 19° 166° (SSE) 03:12:36 not established
Saudisat 1A 17 Sep 03:15:15 03:19:39 64° 59° (ENE) 03:24:00 436.775 MHz
Oscar 16 17 Sep 03:23:08 03:27:50 36° 290° (WNW) 03:32:29 437.025 USB, Beacon 2401.1428
OPAL 17 Sep 03:25:51 03:27:09 11° 59° (ENE) 03:28:28 ?
Gurwin Techsat 1B 17 Sep 03:31:15 03:36:24 49° 100° (E) 03:41:31 435.225 FM
KITSAT 1 17 Sep 03:35:00 03:39:33 16° 38° (NE) 03:44:05 435.175 FM
ISS 17 Sep 03:35:08 03:38:27 73° 137° (SE) 03:41:46 145.800 FM
AO-7 17 Sep 03:44:39 03:48:05 13° 91° (E) 03:51:31 29.400 - 29.500 MHz
AO-Echo 17 Sep 03:59:28 04:03:41 31° 289° (WNW) 04:08:00 ?
ITAMSAT 1 17 Sep 04:00:23 04:05:12 39° 289° (WNW) 04:10:01 435.822 SSB
Uribyol 2 17 Sep 04:05:30 04:10:08 33° 290° (WNW) 04:14:46 436.500 FM
TMSAT-1 17 Sep 04:10:04 04:15:24 86° 104° (ESE) 04:20:42 436.925 FM
JAS-1B 17 Sep 04:30:51 04:35:23 24° 295° (WNW) 04:39:51 435.800 - 435.900 CW/SSB
AO-27 17 Sep 04:35:39 04:39:11 19° 295° (WNW) 04:42:44 436.795 MHz FM
PANSAT 17 Sep 04:46:17 04:49:34 27° 179° (S) 04:52:52 not established
Saudisat 1A 17 Sep 04:57:49 04:58:38 10° 253° (WSW) 04:59:27 436.775 MHz
OPAL 17 Sep 05:00:05 05:05:15 86° 255° (WSW) 05:10:29 ?
Uosat F 17 Sep 05:06:33 05:11:26 49° 100° (E) 05:16:17 435.120 FM
RS-15 17 Sep 05:06:43 05:17:50 83° 117° (ESE) 05:28:46 29.354 - 29.394 USB, Beacon 29.352 USB
Gurwin Techsat 1B 17 Sep 05:12:22 05:15:56 19° 295° (WNW) 05:19:31 435.225 FM
ISS 17 Sep 05:13:30 05:15:30 15° 333° (NNW) 05:17:29 145.800 FM
KITSAT 1 17 Sep 05:28:32 05:36:35 67° 60° (ENE) 05:44:34 435.175 FM
AO-7 17 Sep 05:33:32 05:41:52 82° 107° (ESE) 05:50:09 29.400 - 29.500 MHz
STRAND 1 17 Sep 05:40:37 05:42:06 11° 62° (ENE) 05:43:34 ?
TMSAT-1 17 Sep 05:53:24 05:54:32 11° 299° (WNW) 05:55:40 436.925 FM
PANSAT 17 Sep 06:26:19 06:29:17 21° 191° (SSW) 06:32:15 not established
Hamsat 17 Sep 06:28:10 06:32:06 36° 98° (E) 06:35:59 145.90 MHz
JAS-2 17 Sep 06:31:20 06:37:11 50° 101° (E) 06:43:45 435.800 - 435.900 CW/SSB, 435.910 FM
Uosat F 17 Sep 06:46:37 06:49:47 17° 295° (WNW) 06:52:57 435.120 FM
STRAND 1 17 Sep 07:15:30 07:20:35 78° 257° (WSW) 07:25:41 ?
RS-15 17 Sep 07:22:26 07:31:28 28° 320° (NW) 07:40:32 29.354 - 29.394 USB, Beacon 29.352 USB
KITSAT 1 17 Sep 07:25:17 07:31:14 23° 256° (WSW) 07:37:11 435.175 FM
AO-7 17 Sep 07:28:04 07:33:40 21° 304° (NW) 07:39:17 29.400 - 29.500 MHz
Hamsat 17 Sep 08:05:07 08:07:44 16° 292° (WNW) 08:10:19 145.90 MHz
SO-50 17 Sep 08:11:56 08:16:40 53° 57° (ENE) 08:21:25 436.795 FM
SO-67 17 Sep 08:16:03 08:19:30 76° 282° (WNW) 08:22:56 435.3500 MHz FM
JAS-2 17 Sep 08:17:22 08:21:59 24° 292° (WNW) 08:27:00 435.800 - 435.900 CW/SSB, 435.910 FM
MaSat-1 17 Sep 09:04:52 09:09:50 75° 111° (ESE) 09:14:52 437.345 MHz
HO-68 17 Sep 09:16:18 09:22:31 31° 97° (E) 09:28:43 435.675 MHz FM
UKube-1 17 Sep 09:42:33 09:45:37 19° 95° (E) 09:48:39 145.840 MHz, 145.915 MHz
RS-15 17 Sep 09:45:30 09:49:25 12° 356° (N) 09:53:22 29.354 - 29.394 USB, Beacon 29.352 USB
SO-50 17 Sep 09:53:56 09:56:48 16° 252° (WSW) 09:59:39 436.795 FM
UOSAT-12 17 Sep 10:04:30 10:09:10 58° 58° (ENE) 10:13:45 437.025 FM, 437.400 FM
ISS 17 Sep 10:06:36 10:09:27 25° 33° (NNE) 10:12:17 145.800 FM
MaSat-1 17 Sep 10:44:34 10:47:09 14° 307° (NW) 10:49:43 437.345 MHz
FUNcube-1 17 Sep 10:46:36 10:50:41 30° 96° (E) 10:54:41 145.950 - 145.970 MHz USB
Oscar 11 17 Sep 11:03:30 11:07:49 65° 284° (WNW) 11:12:06 145.825 FM, Beacon 2401.500 USB
HO-68 17 Sep 11:03:34 11:10:17 45° 293° (WNW) 11:16:59 435.675 MHz FM
UKube-1 17 Sep 11:17:57 11:21:50 32° 289° (WNW) 11:25:43 145.840 MHz, 145.915 MHz
ISS 17 Sep 11:43:14 11:46:08 28° 229° (SW) 11:49:02 145.800 FM
UOSAT-12 17 Sep 11:46:38 11:48:46 13° 253° (WSW) 11:50:53 437.025 FM, 437.400 FM
RS-15 17 Sep 12:00:05 12:08:10 22° 33° (NNE) 12:16:24 29.354 - 29.394 USB, Beacon 29.352 USB
Sapphire 17 Sep 12:18:51 12:23:39 33° 109° (ESE) 12:28:27 437.095 MHz 1200 baud AX-25 AFSK
FUNcube-1 17 Sep 12:23:15 12:26:52 23° 291° (WNW) 12:30:26 145.950 - 145.970 MHz USB
Oscar 19 17 Sep 12:23:40 12:24:52 11° 61° (ENE) 12:26:04 437.125 CW, 437.150 USB
PCSat 17 Sep 12:45:29 12:50:49 66° 113° (ESE) 12:56:12 145.825 MHz
Oscar 16 17 Sep 12:58:35 13:02:49 26° 68° (ENE) 13:07:04 437.025 USB, Beacon 2401.1428
Oscar 10/S400 17 Sep 13:14:24 13:32:45 18° 154° (SSE) 13:44:42 145.825 - 145.975 CW/USB, Beacon 145.810 USB
JAS-1B 17 Sep 13:20:00 13:27:30 33° 67° (ENE) 13:34:02 435.800 - 435.900 CW/SSB
AO-Echo 17 Sep 13:31:48 13:35:31 23° 69° (ENE) 13:39:11 ?
ITAMSAT 1 17 Sep 13:37:04 13:41:11 25° 67° (ENE) 13:45:20 435.822 SSB
Uribyol 2 17 Sep 13:41:34 13:45:58 29° 69° (ENE) 13:50:23 436.500 FM
TMSAT-1 17 Sep 13:52:30 13:54:02 11° 62° (ENE) 13:55:33 436.925 FM
Oscar 19 17 Sep 13:58:15 14:03:27 84° 257° (WSW) 14:08:40 437.125 CW, 437.150 USB
Sapphire 17 Sep 14:02:20 14:07:01 30° 305° (NW) 14:11:45 437.095 MHz 1200 baud AX-25 AFSK
AO-27 17 Sep 14:10:21 14:15:22 54° 73° (ENE) 14:20:24 436.795 MHz FM
RS-15 17 Sep 14:11:37 14:22:47 74° 59° (ENE) 14:34:25 29.354 - 29.394 USB, Beacon 29.352 USB
PCSat 17 Sep 14:31:13 14:34:43 17° 311° (NW) 14:38:13 145.825 MHz
Oscar 16 17 Sep 14:37:21 14:41:59 33° 263° (W) 14:46:39 437.025 USB, Beacon 2401.1428
AO-7 17 Sep 14:40:47 14:45:39 17° 54° (NE) 14:50:29 29.400 - 29.500 MHz
Gurwin Techsat 1B 17 Sep 14:49:25 14:54:36 58° 73° (ENE) 14:59:49 435.225 FM
JAS-1B 17 Sep 15:09:04 15:17:48 51° 259° (W) 15:25:16 435.800 - 435.900 CW/SSB
AO-Echo 17 Sep 15:09:53 15:14:07 31° 262° (W) 15:18:18 ?
ITAMSAT 1 17 Sep 15:15:49 15:20:28 34° 262° (W) 15:25:10 435.822 SSB
Uribyol 2 17 Sep 15:20:56 15:25:20 29° 263° (W) 15:29:48 436.500 FM
TMSAT-1 17 Sep 15:27:54 15:33:11 82° 257° (WSW) 15:38:30 436.925 FM
AO-27 17 Sep 15:52:14 15:55:10 15° 267° (W) 15:58:06 436.795 MHz FM
Uosat F 17 Sep 16:16:59 16:21:47 50° 72° (ENE) 16:26:37 435.120 FM
RS-15 17 Sep 16:25:25 16:34:08 27° 256° (WSW) 16:43:11 29.354 - 29.394 USB, Beacon 29.352 USB
AO-7 17 Sep 16:28:54 16:37:13 85° 72° (ENE) 16:45:33 29.400 - 29.500 MHz
Gurwin Techsat 1B 17 Sep 16:32:03 16:34:54 15° 268° (W) 16:37:45 435.225 FM
JAS-2 17 Sep 16:45:20 16:47:09 12° 63° (ENE) 16:48:56 435.800 - 435.900 CW/SSB, 435.910 FM
OPAL 17 Sep 17:13:28 17:18:05 32° 99° (E) 17:22:35 ?
Saudisat 1A 17 Sep 17:19:14 17:23:09 32° 113° (ESE) 17:27:05 436.775 MHz
Hamsat 17 Sep 17:19:17 17:22:25 20° 69° (ENE) 17:25:33 145.90 MHz
Uosat F 17 Sep 17:57:55 18:00:49 15° 267° (W) 18:03:43 435.120 FM
AO-7 17 Sep 18:25:51 18:30:46 17° 267° (W) 18:35:44 29.400 - 29.500 MHz
JAS-2 17 Sep 18:26:17 18:31:41 70° 258° (WSW) 18:36:51 435.800 - 435.900 CW/SSB, 435.910 FM
SO-67 17 Sep 18:46:47 18:49:23 20° 72° (ENE) 18:52:01 435.3500 MHz FM
OPAL 17 Sep 18:52:30 18:56:47 27° 294° (WNW) 19:01:01 ?
Hamsat 17 Sep 18:54:15 18:58:08 31° 263° (W) 19:02:01 145.90 MHz
Saudisat 1A 17 Sep 18:59:14 19:02:45 23° 309° (NW) 19:06:16 436.775 MHz
MaSat-1 17 Sep 19:01:40 19:05:27 83° 66° (ENE) 19:08:38 437.345 MHz
STRAND 1 17 Sep 19:29:11 19:34:06 45° 100° (E) 19:39:00 ?
HO-68 17 Sep 19:43:46 19:48:15 18° 58° (ENE) 19:52:43 435.675 MHz FM
KITSAT 1 17 Sep 19:52:56 20:00:56 70° 114° (ESE) 20:08:58 435.175 FM
SO-67 17 Sep 20:19:59 20:22:19 17° 265° (W) 20:24:41 435.3500 MHz FM
UKube-1 17 Sep 20:36:58 20:38:36 12° 65° (ENE) 20:40:15 145.840 MHz, 145.915 MHz
STRAND 1 17 Sep 21:09:22 21:12:54 19° 294° (WNW) 21:16:27 ?
Sapphire 17 Sep 21:10:21 21:13:47 17° 49° (NE) 21:17:13 437.095 MHz 1200 baud AX-25 AFSK
HO-68 17 Sep 21:27:58 21:35:06 80° 255° (WSW) 21:42:16 435.675 MHz FM
PCSat 17 Sep 21:36:45 21:41:27 29° 55° (NE) 21:46:07 145.825 MHz
FUNcube-1 17 Sep 21:41:12 21:44:03 17° 67° (ENE) 21:46:57 145.950 - 145.970 MHz USB
KITSAT 1 17 Sep 21:50:25 21:56:58 27° 313° (NW) 22:03:35 435.175 FM
Oscar 11 17 Sep 21:55:18 21:59:37 66° 76° (ENE) 22:03:58 145.825 FM, Beacon 2401.500 USB
AO-40 17 Sep 22:03:26 01:17:17 28° 120° (ESE) 02:38:14 Beacon 2401.320
UKube-1 17 Sep 22:10:05 22:14:18 54° 259° (W) 22:18:33 145.840 MHz, 145.915 MHz
SO-50 17 Sep 22:24:38 22:28:34 32° 113° (ESE) 22:32:36 436.795 FM
Sapphire 17 Sep 22:52:19 22:57:43 68° 246° (WSW) 23:03:04 437.095 MHz 1200 baud AX-25 AFSK
FUNcube-1 17 Sep 23:16:04 23:20:05 37° 262° (W) 23:24:14 145.950 - 145.970 MHz USB
PCSat 17 Sep 23:19:59 23:24:51 35° 251° (WSW) 23:29:41 145.825 MHz
HO-68 17 Sep 23:22:33 23:23:42 10° 271° (W) 23:24:51 435.675 MHz FM
SO-50 18 Sep 00:05:29 00:09:08 24° 309° (NW) 00:12:52 436.795 FM
UOSAT-12 18 Sep 00:13:08 00:17:15 34° 113° (ESE) 00:21:28 437.025 FM, 437.400 FM
Oscar 16 18 Sep 01:15:41 01:16:47 11° 91° (E) 01:17:53 437.025 USB, Beacon 2401.1428
Saudisat 1A 18 Sep 01:49:36 01:51:56 14° 46° (NE) 01:54:15 436.775 MHz
UOSAT-12 18 Sep 01:53:39 01:57:26 24° 309° (NW) 02:01:17 437.025 FM, 437.400 FM
ITAMSAT 1 18 Sep 01:55:31 01:56:16 10° 91° (E) 01:57:00 435.822 SSB
Uribyol 2 18 Sep 01:58:47 02:01:04 13° 92° (E) 02:03:20 436.500 FM
Oscar 19 18 Sep 02:13:06 02:18:02 44° 99° (E) 02:22:55 437.125 CW, 437.150 USB
AO-27 18 Sep 02:26:55 02:31:09 25° 96° (E) 02:35:22 436.795 MHz FM
PANSAT 18 Sep 02:41:54 02:44:41 19° 167° (SSE) 02:47:28 not established
ISS 18 Sep 02:46:42 02:49:47 36° 133° (SE) 02:52:52 145.800 FM
Oscar 16 18 Sep 02:51:26 02:56:37 74° 285° (WNW) 03:01:44 437.025 USB, Beacon 2401.1428
